Roseburg, OR

4:14 PM PST on November 18, 2017 (GMT -0800)
Roseburg Regional

Weather History for KRBG - July, 2013

Change the Weather History Date:

Monday, July 22, 2013

  Actual Average Record
Temperature  
Mean Temperature 78 °F 71 °F  
Max Temperature 96 °F 86 °F 106 °F (2006)
Min Temperature 59 °F 57 °F 45 °F (1934)
Degree Days  
Heating Degree Days 0 0  
Month to date heating degree days 0 8  
Since 1 June heating degree days 35 91  
Since 1 July heating degree days 0 8  
Cooling Degree Days 13 6  
Month to date cooling degree days 210 113  
Year to date cooling degree days 355 183  
Since 1 June cooling degree days 321 163  
Growing Degree Days 28 (Base 50)    
Moisture  
Dew Point 50 °F    
Average Humidity 46    
Maximum Humidity 78    
Minimum Humidity 13    
Precipitation  
Precipitation 0.00 in 0.01 in 0.58 in (1993)
Month to date precipitation T 0.33  
Year to date precipitation 7.88 19.09  
Sea Level Pressure  
Sea Level Pressure 29.93 in    
Wind  
Wind Speed 6 mph (North)    
Max Wind Speed 20 mph    
Max Gust Speed 22 mph    
Visibility 10 miles    
Events      
T = Trace of Precipitation, MM = Missing Value Source: NWS Daily Summary

Daily Weather History Graph

Daily Weather History Graph

Search for Another Location

Airport or City:

Trip Planner

Search our weather history database for the weather conditions in past years. The results will help you decide how hot, cold, wet, or windy it might be!

Date:

Astronomy

Jul. 22, 2013 Rise Set
Actual Time 5:53 AM PDT 8:45 PM PDT
Civil Twilight 5:20 AM PDT 9:18 PM PDT
Nautical Twilight 4:37 AM PDT 10:01 PM PDT
Astronomical Twilight 3:48 AM PDT 10:50 PM PDT
Moon 8:32 PM PDT (7/22) 5:58 AM PDT (7/22)
Length of Visible Light 15h 58m
Length of Day
14h 51m
Full, 100% of the Moon is Illuminated
Jul 22
Full
Jul 29
Last Quarter
Aug 6
New
Aug 14
First Quarter
Aug 20
Full

Hourly Weather History & Observations

Time (PDT) Temp. Heat Index Dew Point Humidity Pressure Visibility Wind Dir Wind Speed Gust Speed Precip Events Conditions
12:53 AM 69.1 °F - 54.0 °F 58% 29.90 in 10.0 mi Calm Calm - N/A   Clear
1:53 AM 66.9 °F - 54.0 °F 63% 29.91 in 10.0 mi Calm Calm - N/A   Clear
2:53 AM 64.9 °F - 54.0 °F 68% 29.91 in 10.0 mi Calm Calm - N/A   Clear
3:53 AM 64.0 °F - 54.0 °F 70% 29.92 in 10.0 mi Calm Calm - N/A   Clear
4:53 AM 62.1 °F - 53.1 °F 72% 29.93 in 10.0 mi Calm Calm - N/A   Clear
5:53 AM 60.1 °F - 52.0 °F 75% 29.95 in 10.0 mi Calm Calm - N/A   Clear
6:53 AM 61.0 °F - 53.1 °F 75% 29.96 in 10.0 mi Calm Calm - N/A   Clear
7:53 AM 66.9 °F - 55.9 °F 68% 29.98 in 10.0 mi North 5.8 mph - N/A   Clear
8:53 AM 70.0 °F - 57.0 °F 63% 29.98 in 10.0 mi NNE 5.8 mph - N/A   Clear
9:53 AM 73.9 °F - 57.0 °F 55% 29.98 in 10.0 mi NNE 6.9 mph - N/A   Clear
10:53 AM 77.0 °F - 55.9 °F 48% 29.97 in 10.0 mi NNE 6.9 mph - N/A   Clear
11:53 AM 81.0 °F 80.8 °F 55.9 °F 42% 29.96 in 10.0 mi NNE 9.2 mph - N/A   Clear
12:53 PM 87.1 °F 85.1 °F 54.0 °F 32% 29.94 in 10.0 mi NNE 11.5 mph - N/A   Clear
1:53 PM 89.1 °F - 51.1 °F 27% 29.92 in 10.0 mi NNE 10.4 mph 18.4 mph N/A   Clear
2:53 PM 93.9 °F - 46.9 °F 20% 29.90 in 10.0 mi NNE 11.5 mph 20.7 mph N/A   Clear
3:53 PM 95.0 °F - 43.0 °F 17% 29.89 in 10.0 mi North 12.7 mph - N/A   Clear
4:53 PM 95.0 °F - 39.0 °F 14% 29.88 in 10.0 mi North 15.0 mph 19.6 mph N/A   Clear
5:53 PM 93.9 °F - 36.0 °F 13% 29.87 in 10.0 mi North 13.8 mph - N/A   Clear
6:53 PM 91.9 °F - 42.1 °F 18% 29.88 in 10.0 mi North 16.1 mph - N/A   Clear
7:53 PM 88.0 °F - 43.0 °F 21% 29.89 in 10.0 mi North 8.1 mph - N/A   Clear
8:53 PM 84.9 °F - 45.0 °F 25% 29.90 in 10.0 mi North 6.9 mph - N/A   Clear
9:53 PM 82.0 °F - 45.0 °F 27% 29.93 in 10.0 mi NNW 3.5 mph - N/A   Clear
10:53 PM 80.1 °F - 45.0 °F 29% 29.94 in 10.0 mi NNW 3.5 mph - N/A   Clear
11:53 PM 73.9 °F - 46.0 °F 37% 29.95 in 10.0 mi Calm Calm - N/A   Clear